CZ-3A R/B (43492 NORAD) Tracking and Keplerian Element Data

This shows tracking and keplerian element data for the satellite.

Feedback or suggestion? Click here.




ElementValue
Catalog43492
NameCZ-3A R/B
Epoch Orbit65
Epoch Day185.34719303
Epoch Year2018
RAAN70.353
Inclination24.6863
Eccentricity0.7288181
Argument of Perigee199.466
Mean Anonmoly102.7362
Mean Motion2.23338832
Decay Rate-3.3E-07
L11 43492U 18050B 18185.34719303 -.00000033 00000-0 16744-3 0 9991
L22 43492 24.6863 70.3530 7288181 199.4660 102.7362 2.23338832 657

Live tracking and technical data element details for CZ-3A R/B (NORAD 43492). CZ-3A R/B can be tracked NOW for your location showing map with azimuth and elevation plus other details from your city location.

Track the satellite on the map from your city or location and see movement details for azimuth, elevation, latitude, longitude, range, height, and movement on the map or in text.







IsCatalogInMostPopularTable: catalog: 43492, numindb: 23
Update: records affected: 1



GetName: 43492 CZ-3A R/B

Hit Count: updated at: Wed, 18 Jul 2018 20:31:52 GMT